Year,Month,Day,Hour,Minute,Value (Times are PST for temperature in C)
2013,07,02,00,00,15.20
2013,07,02,00,01,15.20
2013,07,02,00,02,15.10
2013,07,02,00,03,15.10
2013,07,02,00,04,15.10
2013,07,02,00,05,15.10
2013,07,02,00,06,15.10
2013,07,02,00,07,15.10
2013,07,02,00,08,15.10
2013,07,02,00,09,15.10
2013,07,02,00,10,15.10
2013,07,02,00,11,15.10
2013,07,02,00,12,15.10
2013,07,02,00,13,15.10
2013,07,02,00,14,15.10
2013,07,02,00,15,15.10
2013,07,02,00,16,15.10
2013,07,02,00,17,15.10
2013,07,02,00,18,15.10
2013,07,02,00,19,15.10
2013,07,02,00,20,15.10
2013,07,02,00,21,15.10
2013,07,02,00,22,15.20
2013,07,02,00,23,15.20
2013,07,02,00,24,15.20
2013,07,02,00,25,15.20
2013,07,02,00,26,15.20
2013,07,02,00,27,15.20
2013,07,02,00,28,15.20
2013,07,02,00,29,15.20
2013,07,02,00,30,15.30
2013,07,02,00,31,15.30
2013,07,02,00,32,15.30
2013,07,02,00,33,15.30
2013,07,02,00,34,15.30
2013,07,02,00,35,15.30
2013,07,02,00,36,15.30
2013,07,02,00,37,15.30
2013,07,02,00,38,15.30
2013,07,02,00,39,15.30
2013,07,02,00,40,15.30
2013,07,02,00,41,15.30
2013,07,02,00,42,15.30
2013,07,02,00,43,15.30
2013,07,02,00,44,15.30
2013,07,02,00,45,15.30
2013,07,02,00,46,15.30
2013,07,02,00,47,15.30
2013,07,02,00,48,15.30
2013,07,02,00,49,15.20
2013,07,02,00,50,15.20
2013,07,02,00,51,15.20
2013,07,02,00,52,15.20
2013,07,02,00,53,15.20
2013,07,02,00,54,15.20
2013,07,02,00,55,15.20
2013,07,02,00,56,15.20
2013,07,02,00,57,15.20
2013,07,02,00,58,15.20
2013,07,02,00,59,15.20
2013,07,02,01,00,15.20
2013,07,02,01,01,15.20
2013,07,02,01,02,15.20
2013,07,02,01,03,15.20
2013,07,02,01,04,15.20
2013,07,02,01,05,15.20
2013,07,02,01,06,15.20
2013,07,02,01,07,15.10
2013,07,02,01,08,15.10
2013,07,02,01,09,15.10
2013,07,02,01,10,15.10
2013,07,02,01,11,15.10
2013,07,02,01,12,15.10
2013,07,02,01,13,15.10
2013,07,02,01,14,15.10
2013,07,02,01,15,15.10
2013,07,02,01,16,15.10
2013,07,02,01,17,15.10
2013,07,02,01,18,15.10
2013,07,02,01,19,15.10
2013,07,02,01,20,15.00
2013,07,02,01,21,15.00
2013,07,02,01,22,15.00
2013,07,02,01,23,14.90
2013,07,02,01,24,14.90
2013,07,02,01,25,14.90
2013,07,02,01,26,14.80
2013,07,02,01,27,14.80
2013,07,02,01,28,14.80
2013,07,02,01,29,14.80
2013,07,02,01,30,14.80
2013,07,02,01,31,14.80
2013,07,02,01,32,14.80
2013,07,02,01,33,14.80
2013,07,02,01,34,14.80
2013,07,02,01,35,14.80
2013,07,02,01,36,14.80
2013,07,02,01,37,14.80
2013,07,02,01,38,14.80
2013,07,02,01,39,14.80
2013,07,02,01,40,14.80
2013,07,02,01,41,14.80
2013,07,02,01,42,14.80
2013,07,02,01,43,14.80
2013,07,02,01,44,14.80
2013,07,02,01,45,14.80
2013,07,02,01,46,14.80
2013,07,02,01,47,14.80
2013,07,02,01,48,14.80
2013,07,02,01,49,14.80
2013,07,02,01,50,14.90
2013,07,02,01,51,14.90
2013,07,02,01,52,14.90
2013,07,02,01,53,14.90
2013,07,02,01,54,14.90
2013,07,02,01,55,14.90
2013,07,02,01,56,14.90
2013,07,02,01,57,14.90
2013,07,02,01,58,15.00
2013,07,02,01,59,15.00
2013,07,02,02,00,15.00
2013,07,02,02,01,15.00
2013,07,02,02,02,15.00
2013,07,02,02,03,15.00
2013,07,02,02,04,15.00
2013,07,02,02,05,15.00
2013,07,02,02,06,15.00
2013,07,02,02,07,15.00
2013,07,02,02,08,15.00
2013,07,02,02,09,15.00
2013,07,02,02,10,15.10
2013,07,02,02,11,15.10
2013,07,02,02,12,15.00
2013,07,02,02,13,15.00
2013,07,02,02,14,15.00
2013,07,02,02,15,15.00
2013,07,02,02,16,15.00
2013,07,02,02,17,15.00
2013,07,02,02,18,15.00
2013,07,02,02,19,15.00
2013,07,02,02,20,14.90
2013,07,02,02,21,14.90
2013,07,02,02,22,14.90
2013,07,02,02,23,14.80
2013,07,02,02,24,14.80
2013,07,02,02,25,14.80
2013,07,02,02,26,14.80
2013,07,02,02,27,14.80
2013,07,02,02,28,14.80
2013,07,02,02,29,14.80
2013,07,02,02,30,14.80
2013,07,02,02,31,14.80
2013,07,02,02,32,14.80
2013,07,02,02,33,14.80
2013,07,02,02,34,14.70
2013,07,02,02,35,14.70
2013,07,02,02,36,14.60
2013,07,02,02,37,14.60
2013,07,02,02,38,14.60
2013,07,02,02,39,14.50
2013,07,02,02,40,14.50
2013,07,02,02,41,14.50
2013,07,02,02,42,14.40
2013,07,02,02,43,14.40
2013,07,02,02,44,14.40
2013,07,02,02,45,14.30
2013,07,02,02,46,14.30
2013,07,02,02,47,14.30
2013,07,02,02,48,14.30
2013,07,02,02,49,14.30
2013,07,02,02,50,14.20
2013,07,02,02,51,14.20
2013,07,02,02,52,14.20
2013,07,02,02,53,14.20
2013,07,02,02,54,14.20
2013,07,02,02,55,14.20
2013,07,02,02,56,14.20
2013,07,02,02,57,14.20
2013,07,02,02,58,14.20
2013,07,02,02,59,14.20
2013,07,02,03,00,14.10
2013,07,02,03,01,14.10
2013,07,02,03,02,14.10
2013,07,02,03,03,14.10
2013,07,02,03,04,14.10
2013,07,02,03,05,14.10
2013,07,02,03,06,14.10
2013,07,02,03,07,14.10
2013,07,02,03,08,14.10
2013,07,02,03,09,14.10
2013,07,02,03,10,14.00
2013,07,02,03,11,14.00
2013,07,02,03,12,14.00
2013,07,02,03,13,14.00
2013,07,02,03,14,14.00
2013,07,02,03,15,13.90
2013,07,02,03,16,13.90
2013,07,02,03,17,13.90
2013,07,02,03,18,13.80
2013,07,02,03,19,13.80
2013,07,02,03,20,13.80
2013,07,02,03,21,13.80
2013,07,02,03,22,13.80
2013,07,02,03,23,13.80
2013,07,02,03,24,13.80
2013,07,02,03,25,13.80
2013,07,02,03,26,13.80
2013,07,02,03,27,13.80
2013,07,02,03,28,13.80
2013,07,02,03,29,13.80
2013,07,02,03,30,13.80
2013,07,02,03,31,13.80
2013,07,02,03,32,13.80
2013,07,02,03,33,13.80
2013,07,02,03,34,13.70
2013,07,02,03,35,13.70
2013,07,02,03,36,13.70
2013,07,02,03,37,13.70
2013,07,02,03,38,13.70
2013,07,02,03,39,13.70
2013,07,02,03,40,13.60
2013,07,02,03,41,13.60
2013,07,02,03,42,13.60
2013,07,02,03,43,13.60
2013,07,02,03,44,13.60
2013,07,02,03,45,13.60
2013,07,02,03,46,13.60
2013,07,02,03,47,13.60
2013,07,02,03,48,13.60
2013,07,02,03,49,13.60
2013,07,02,03,50,13.60
2013,07,02,03,51,13.50
2013,07,02,03,52,13.50
2013,07,02,03,53,13.50
2013,07,02,03,54,13.50
2013,07,02,03,55,13.60
2013,07,02,03,56,13.60
2013,07,02,03,57,13.60
2013,07,02,03,58,13.60
2013,07,02,03,59,13.60
2013,07,02,04,00,13.60
2013,07,02,04,01,13.60
2013,07,02,04,02,13.60
2013,07,02,04,03,13.60
2013,07,02,04,04,13.60
2013,07,02,04,05,13.60
2013,07,02,04,06,13.60
2013,07,02,04,07,13.60
2013,07,02,04,08,13.60
2013,07,02,04,09,13.60
2013,07,02,04,10,13.60
2013,07,02,04,11,13.50
2013,07,02,04,12,13.50
2013,07,02,04,13,13.50
2013,07,02,04,14,13.50
2013,07,02,04,15,13.50
2013,07,02,04,16,13.50
2013,07,02,04,17,13.50
2013,07,02,04,18,13.50
2013,07,02,04,19,13.50
2013,07,02,04,20,13.50
2013,07,02,04,21,13.50
2013,07,02,04,22,13.50
2013,07,02,04,23,13.40
2013,07,02,04,24,13.40
2013,07,02,04,25,13.40
2013,07,02,04,26,13.40
2013,07,02,04,27,13.40
2013,07,02,04,28,13.40
2013,07,02,04,29,13.40
2013,07,02,04,30,13.40
2013,07,02,04,31,13.30
2013,07,02,04,32,13.30
2013,07,02,04,33,13.30
2013,07,02,04,34,13.30
2013,07,02,04,35,13.30
2013,07,02,04,36,13.30
2013,07,02,04,37,13.30
2013,07,02,04,38,13.30
2013,07,02,04,39,13.20
2013,07,02,04,40,13.20
2013,07,02,04,41,13.20
2013,07,02,04,42,13.20
2013,07,02,04,43,13.20
2013,07,02,04,44,13.20
2013,07,02,04,45,13.10
2013,07,02,04,46,13.10
2013,07,02,04,47,13.10
2013,07,02,04,48,13.10
2013,07,02,04,49,13.10
2013,07,02,04,50,13.10
2013,07,02,04,51,13.10
2013,07,02,04,52,13.10
2013,07,02,04,53,13.00
2013,07,02,04,54,13.00
2013,07,02,04,55,13.00
2013,07,02,04,56,13.00
2013,07,02,04,57,13.00
2013,07,02,04,58,13.00
2013,07,02,04,59,12.90
2013,07,02,05,00,12.90
2013,07,02,05,01,12.90
2013,07,02,05,02,12.90
2013,07,02,05,03,12.90
2013,07,02,05,04,12.90
2013,07,02,05,05,12.90
2013,07,02,05,06,12.90
2013,07,02,05,07,12.90
2013,07,02,05,08,12.80
2013,07,02,05,09,12.80
2013,07,02,05,10,12.80
2013,07,02,05,11,12.80
2013,07,02,05,12,12.80
2013,07,02,05,13,12.80
2013,07,02,05,14,12.80
2013,07,02,05,15,12.80
2013,07,02,05,16,12.80
2013,07,02,05,17,12.70
2013,07,02,05,18,12.70
2013,07,02,05,19,12.70
2013,07,02,05,20,12.70
2013,07,02,05,21,12.70
2013,07,02,05,22,12.70
2013,07,02,05,23,12.70
2013,07,02,05,24,12.70
2013,07,02,05,25,12.70
2013,07,02,05,26,12.70
2013,07,02,05,27,12.70
2013,07,02,05,28,12.70
2013,07,02,05,29,12.70
2013,07,02,05,30,12.70
2013,07,02,05,31,12.70
2013,07,02,05,32,12.70
2013,07,02,05,33,12.70
2013,07,02,05,34,12.70
2013,07,02,05,35,12.70
2013,07,02,05,36,12.70
2013,07,02,05,37,12.70
2013,07,02,05,38,12.60
2013,07,02,05,39,12.70
2013,07,02,05,40,12.70
2013,07,02,05,41,12.70
2013,07,02,05,42,12.80
2013,07,02,05,43,12.80
2013,07,02,05,44,12.80
2013,07,02,05,45,12.80
2013,07,02,05,46,12.80
2013,07,02,05,47,12.80
2013,07,02,05,48,12.80
2013,07,02,05,49,12.80
2013,07,02,05,50,12.80
2013,07,02,05,51,12.80
2013,07,02,05,52,12.80
2013,07,02,05,53,12.80
2013,07,02,05,54,12.80
2013,07,02,05,55,12.80
2013,07,02,05,56,12.80
2013,07,02,05,57,12.90
2013,07,02,05,58,12.90
2013,07,02,05,59,12.90
2013,07,02,06,00,12.90
2013,07,02,06,01,12.90
2013,07,02,06,02,12.90
2013,07,02,06,03,13.00
2013,07,02,06,04,13.00
2013,07,02,06,05,13.00
2013,07,02,06,06,13.00
2013,07,02,06,07,13.00
2013,07,02,06,08,13.00
2013,07,02,06,09,13.00
2013,07,02,06,10,13.00
2013,07,02,06,11,13.00
2013,07,02,06,12,13.10
2013,07,02,06,13,13.10
2013,07,02,06,14,13.20
2013,07,02,06,15,13.20
2013,07,02,06,16,13.20
2013,07,02,06,17,13.30
2013,07,02,06,18,13.30
2013,07,02,06,19,13.40
2013,07,02,06,20,13.40
2013,07,02,06,21,13.50
2013,07,02,06,22,13.50
2013,07,02,06,23,13.50
2013,07,02,06,24,13.60
2013,07,02,06,25,13.60
2013,07,02,06,26,13.60
2013,07,02,06,27,13.60
2013,07,02,06,28,13.70
2013,07,02,06,29,13.80
2013,07,02,06,30,13.90
2013,07,02,06,31,13.90
2013,07,02,06,32,14.00
2013,07,02,06,33,14.10
2013,07,02,06,34,14.20
2013,07,02,06,35,14.20
2013,07,02,06,36,14.30
2013,07,02,06,37,14.40
2013,07,02,06,38,14.50
2013,07,02,06,39,14.50
2013,07,02,06,40,14.60
2013,07,02,06,41,14.70
2013,07,02,06,42,14.80
2013,07,02,06,43,14.80
2013,07,02,06,44,14.90
2013,07,02,06,45,15.00
2013,07,02,06,46,15.00
2013,07,02,06,47,15.10
2013,07,02,06,48,15.10
2013,07,02,06,49,15.20
2013,07,02,06,50,15.30
2013,07,02,06,51,15.30
2013,07,02,06,52,15.40
2013,07,02,06,53,15.40
2013,07,02,06,54,15.50
2013,07,02,06,55,15.50
2013,07,02,06,56,15.60
2013,07,02,06,57,15.60
2013,07,02,06,58,15.70
2013,07,02,06,59,15.70
2013,07,02,07,00,15.80
2013,07,02,07,01,15.80
2013,07,02,07,02,15.90
2013,07,02,07,03,15.90
2013,07,02,07,04,15.90
2013,07,02,07,05,16.00
2013,07,02,07,06,16.10
2013,07,02,07,07,16.20
2013,07,02,07,08,16.30
2013,07,02,07,09,16.30
2013,07,02,07,10,16.40
2013,07,02,07,11,16.40
2013,07,02,07,12,16.50
2013,07,02,07,13,16.60
2013,07,02,07,14,16.60
2013,07,02,07,15,16.60
2013,07,02,07,16,16.70
2013,07,02,07,17,16.70
2013,07,02,07,18,16.70
2013,07,02,07,19,16.70
2013,07,02,07,20,16.70
2013,07,02,07,21,16.70
2013,07,02,07,22,16.70
2013,07,02,07,23,16.70
2013,07,02,07,24,16.70
2013,07,02,07,25,16.70
2013,07,02,07,26,16.70
2013,07,02,07,27,16.70
2013,07,02,07,28,16.70
2013,07,02,07,29,16.70
2013,07,02,07,30,16.70
2013,07,02,07,31,16.60
2013,07,02,07,32,16.60
2013,07,02,07,33,16.50
2013,07,02,07,34,16.40
2013,07,02,07,35,16.50
2013,07,02,07,36,16.60
2013,07,02,07,37,16.60
2013,07,02,07,38,16.70
2013,07,02,07,39,16.70
2013,07,02,07,40,16.70
2013,07,02,07,41,16.80
2013,07,02,07,42,16.90
2013,07,02,07,43,16.90
2013,07,02,07,44,17.00
2013,07,02,07,45,17.10
2013,07,02,07,46,17.10
2013,07,02,07,47,17.10
2013,07,02,07,48,17.10
2013,07,02,07,49,17.10
2013,07,02,07,50,17.10
2013,07,02,07,51,17.10
2013,07,02,07,52,17.00
2013,07,02,07,53,17.00
2013,07,02,07,54,17.00
2013,07,02,07,55,17.00
2013,07,02,07,56,16.90
2013,07,02,07,57,16.90
2013,07,02,07,58,16.90
2013,07,02,07,59,17.00
2013,07,02,08,00,17.10
2013,07,02,08,01,17.10
2013,07,02,08,02,17.20
2013,07,02,08,03,17.30
2013,07,02,08,04,17.40
2013,07,02,08,05,17.40
2013,07,02,08,06,17.40
2013,07,02,08,07,17.40
2013,07,02,08,08,17.30
2013,07,02,08,09,17.30
2013,07,02,08,10,17.20
2013,07,02,08,11,17.20
2013,07,02,08,12,17.20
2013,07,02,08,13,17.20
2013,07,02,08,14,17.10
2013,07,02,08,15,17.10
2013,07,02,08,16,17.10
2013,07,02,08,17,17.10
2013,07,02,08,18,17.10
2013,07,02,08,19,17.10
2013,07,02,08,20,17.00
2013,07,02,08,21,16.90
2013,07,02,08,22,16.90
2013,07,02,08,23,16.90
2013,07,02,08,24,16.90
2013,07,02,08,25,16.70
2013,07,02,08,26,16.70
2013,07,02,08,27,16.50
2013,07,02,08,28,16.40
2013,07,02,08,29,16.40
2013,07,02,08,30,16.40
2013,07,02,08,31,16.30
2013,07,02,08,32,16.30
2013,07,02,08,33,16.30
2013,07,02,08,34,16.30
2013,07,02,08,35,16.40
2013,07,02,08,36,16.40
2013,07,02,08,37,16.50
2013,07,02,08,38,16.40
2013,07,02,08,39,16.30
2013,07,02,08,40,16.20
2013,07,02,08,41,16.10
2013,07,02,08,42,16.10
2013,07,02,08,43,16.20
2013,07,02,08,44,16.20
2013,07,02,08,45,16.20
2013,07,02,08,46,16.30
2013,07,02,08,47,16.30
2013,07,02,08,48,16.30
2013,07,02,08,49,16.20
2013,07,02,08,50,16.20
2013,07,02,08,51,16.30
2013,07,02,08,52,16.30
2013,07,02,08,53,16.30
2013,07,02,08,54,16.30
2013,07,02,08,55,16.20
2013,07,02,08,56,16.20
2013,07,02,08,57,16.20
2013,07,02,08,58,16.20
2013,07,02,08,59,16.20
2013,07,02,09,00,16.30
2013,07,02,09,01,16.40
2013,07,02,09,02,16.40
2013,07,02,09,03,16.60
2013,07,02,09,04,16.70
2013,07,02,09,05,16.70
2013,07,02,09,06,16.80
2013,07,02,09,07,16.80
2013,07,02,09,08,16.90
2013,07,02,09,09,16.90
2013,07,02,09,10,16.70
2013,07,02,09,11,16.70
2013,07,02,09,12,16.70
2013,07,02,09,13,16.60
2013,07,02,09,14,16.60
2013,07,02,09,15,16.60
2013,07,02,09,16,16.60
2013,07,02,09,17,16.70
2013,07,02,09,18,16.70
2013,07,02,09,19,16.70
2013,07,02,09,20,16.80
2013,07,02,09,21,16.90
2013,07,02,09,22,16.90
2013,07,02,09,23,17.00
2013,07,02,09,24,17.20
2013,07,02,09,25,17.30
2013,07,02,09,26,17.50
2013,07,02,09,27,17.60
2013,07,02,09,28,17.70
2013,07,02,09,29,17.80
2013,07,02,09,30,17.90
2013,07,02,09,31,18.00
2013,07,02,09,32,18.20
2013,07,02,09,33,18.40
2013,07,02,09,34,18.40
2013,07,02,09,35,18.40
2013,07,02,09,36,18.40
2013,07,02,09,37,18.40
2013,07,02,09,38,18.40
2013,07,02,09,39,18.40
2013,07,02,09,40,18.30
2013,07,02,09,41,18.30
2013,07,02,09,42,18.30
2013,07,02,09,43,18.30
2013,07,02,09,44,18.30
2013,07,02,09,45,18.30
2013,07,02,09,46,18.30
2013,07,02,09,47,18.30
2013,07,02,09,48,18.40
2013,07,02,09,49,18.40
2013,07,02,09,50,18.40
2013,07,02,09,51,18.40
2013,07,02,09,52,18.40
2013,07,02,09,53,18.30
2013,07,02,09,54,18.30
2013,07,02,09,55,18.30
2013,07,02,09,56,18.30
2013,07,02,09,57,18.30
2013,07,02,09,58,18.30
2013,07,02,09,59,18.40
2013,07,02,10,00,18.50
2013,07,02,10,01,18.50
2013,07,02,10,02,18.50
2013,07,02,10,03,18.60
2013,07,02,10,04,18.50
2013,07,02,10,05,18.40
2013,07,02,10,06,18.30
2013,07,02,10,07,18.20
2013,07,02,10,08,18.10
2013,07,02,10,09,18.10
2013,07,02,10,10,18.10
2013,07,02,10,11,18.10
2013,07,02,10,12,18.10
2013,07,02,10,13,18.10
2013,07,02,10,14,18.10
2013,07,02,10,15,18.10
2013,07,02,10,16,18.00
2013,07,02,10,17,17.90
2013,07,02,10,18,17.90
2013,07,02,10,19,17.90
2013,07,02,10,20,17.90
2013,07,02,10,21,18.00
2013,07,02,10,22,18.20
2013,07,02,10,23,18.30
2013,07,02,10,24,18.30
2013,07,02,10,25,18.30
2013,07,02,10,26,18.30
2013,07,02,10,27,18.30
2013,07,02,10,28,18.20
2013,07,02,10,29,18.10
2013,07,02,10,30,18.10
2013,07,02,10,31,18.00
2013,07,02,10,32,17.90
2013,07,02,10,33,17.90
2013,07,02,10,34,17.90
2013,07,02,10,35,17.90
2013,07,02,10,36,18.00
2013,07,02,10,37,18.10
2013,07,02,10,38,18.00
2013,07,02,10,39,17.90
2013,07,02,10,40,17.90
2013,07,02,10,41,18.00
2013,07,02,10,42,18.10
2013,07,02,10,43,18.20
2013,07,02,10,44,18.30
2013,07,02,10,45,18.40
2013,07,02,10,46,18.40
2013,07,02,10,47,18.50
2013,07,02,10,48,18.50
2013,07,02,10,49,18.50
2013,07,02,10,50,18.60
2013,07,02,10,51,18.60
2013,07,02,10,52,18.70
2013,07,02,10,53,18.90
2013,07,02,10,54,18.90
2013,07,02,10,55,19.00
2013,07,02,10,56,19.10
2013,07,02,10,57,19.00
2013,07,02,10,58,18.90
2013,07,02,10,59,18.90
2013,07,02,11,00,18.90
2013,07,02,11,01,18.80
2013,07,02,11,02,18.80
2013,07,02,11,03,18.80
2013,07,02,11,04,18.70
2013,07,02,11,05,18.70
2013,07,02,11,06,18.60
2013,07,02,11,07,18.60
2013,07,02,11,08,18.60
2013,07,02,11,09,18.70
2013,07,02,11,10,18.60
2013,07,02,11,11,18.70
2013,07,02,11,12,18.60
2013,07,02,11,13,18.60
2013,07,02,11,14,18.50
2013,07,02,11,15,18.50
2013,07,02,11,16,18.40
2013,07,02,11,17,18.40
2013,07,02,11,18,18.50
2013,07,02,11,19,18.50
2013,07,02,11,20,18.40
2013,07,02,11,21,18.40
2013,07,02,11,22,18.50
2013,07,02,11,23,18.60
2013,07,02,11,24,18.60
2013,07,02,11,25,18.70
2013,07,02,11,26,18.70
2013,07,02,11,27,18.70
2013,07,02,11,28,18.80
2013,07,02,11,29,18.70
2013,07,02,11,30,18.70
2013,07,02,11,31,18.60
2013,07,02,11,32,18.50
2013,07,02,11,33,18.30
2013,07,02,11,34,18.30
2013,07,02,11,35,18.30
2013,07,02,11,36,18.40
2013,07,02,11,37,18.40
2013,07,02,11,38,18.40
2013,07,02,11,39,18.40
2013,07,02,11,40,18.40
2013,07,02,11,41,18.50
2013,07,02,11,42,18.50
2013,07,02,11,43,18.50
2013,07,02,11,44,18.40
2013,07,02,11,45,18.40
2013,07,02,11,46,18.30
2013,07,02,11,47,18.30
2013,07,02,11,48,18.40
2013,07,02,11,49,18.50
2013,07,02,11,50,18.50
2013,07,02,11,51,18.50
2013,07,02,11,52,18.50
2013,07,02,11,53,18.40
2013,07,02,11,54,18.40
2013,07,02,11,55,18.40
2013,07,02,11,56,18.40
2013,07,02,11,57,18.40
2013,07,02,11,58,18.40
2013,07,02,11,59,18.40
2013,07,02,12,00,18.40
2013,07,02,12,01,18.50
2013,07,02,12,02,18.60
2013,07,02,12,03,18.80
2013,07,02,12,04,18.90
2013,07,02,12,05,19.10
2013,07,02,12,06,19.10
2013,07,02,12,07,19.20
2013,07,02,12,08,19.30
2013,07,02,12,09,19.40
2013,07,02,12,10,19.40
2013,07,02,12,11,19.50
2013,07,02,12,12,19.50
2013,07,02,12,13,19.50
2013,07,02,12,14,19.60
2013,07,02,12,15,19.70
2013,07,02,12,16,19.70
2013,07,02,12,17,19.80
2013,07,02,12,18,19.80
2013,07,02,12,19,19.90
2013,07,02,12,20,19.90
2013,07,02,12,21,20.00
2013,07,02,12,22,20.10
2013,07,02,12,23,20.20
2013,07,02,12,24,20.20
2013,07,02,12,25,20.10
2013,07,02,12,26,20.10
2013,07,02,12,27,20.10
2013,07,02,12,28,20.10
2013,07,02,12,29,20.10
2013,07,02,12,30,20.20
2013,07,02,12,31,20.20
2013,07,02,12,32,20.20
2013,07,02,12,33,20.10
2013,07,02,12,34,20.00
2013,07,02,12,35,20.00
2013,07,02,12,36,20.10
2013,07,02,12,37,20.20
2013,07,02,12,38,20.20
2013,07,02,12,39,20.10
2013,07,02,12,40,20.10
2013,07,02,12,41,20.00
2013,07,02,12,42,19.90
2013,07,02,12,43,19.80
2013,07,02,12,44,19.70
2013,07,02,12,45,19.60
2013,07,02,12,46,19.60
2013,07,02,12,47,19.50
2013,07,02,12,48,19.50
2013,07,02,12,49,19.50
2013,07,02,12,50,19.50
2013,07,02,12,51,19.60
2013,07,02,12,52,19.60
2013,07,02,12,53,19.60
2013,07,02,12,54,19.70
2013,07,02,12,55,19.60
2013,07,02,12,56,19.60
2013,07,02,12,57,19.70
2013,07,02,12,58,19.80
2013,07,02,12,59,19.90
2013,07,02,13,00,19.90
2013,07,02,13,01,20.00
2013,07,02,13,02,20.10
2013,07,02,13,03,20.20
2013,07,02,13,04,20.20
2013,07,02,13,05,20.20
2013,07,02,13,06,20.20
2013,07,02,13,07,20.10
2013,07,02,13,08,20.20
2013,07,02,13,09,20.30
2013,07,02,13,10,20.40
2013,07,02,13,11,20.50
2013,07,02,13,12,20.50
2013,07,02,13,13,20.50
2013,07,02,13,14,20.50
2013,07,02,13,15,20.50
2013,07,02,13,16,20.50
2013,07,02,13,17,20.50
2013,07,02,13,18,20.40
2013,07,02,13,19,20.30
2013,07,02,13,20,20.40
2013,07,02,13,21,20.40
2013,07,02,13,22,20.50
2013,07,02,13,23,20.50
2013,07,02,13,24,20.60
2013,07,02,13,25,20.70
2013,07,02,13,26,20.80
2013,07,02,13,27,20.90
2013,07,02,13,28,20.90
2013,07,02,13,29,21.00
2013,07,02,13,30,21.10
2013,07,02,13,31,21.10
2013,07,02,13,32,21.10
2013,07,02,13,33,21.10
2013,07,02,13,34,21.10
2013,07,02,13,35,21.20
2013,07,02,13,36,21.20
2013,07,02,13,37,21.30
2013,07,02,13,38,21.30
2013,07,02,13,39,21.30
2013,07,02,13,40,21.30
2013,07,02,13,41,21.30
2013,07,02,13,42,21.30
2013,07,02,13,43,21.30
2013,07,02,13,44,21.30
2013,07,02,13,45,21.30
2013,07,02,13,46,21.30
2013,07,02,13,47,21.30
2013,07,02,13,48,21.30
2013,07,02,13,49,21.30
2013,07,02,13,50,21.30
2013,07,02,13,51,21.30
2013,07,02,13,52,21.30
2013,07,02,13,53,21.30
2013,07,02,13,54,21.30
2013,07,02,13,55,21.40
2013,07,02,13,56,21.60
2013,07,02,13,57,21.60
2013,07,02,13,58,21.60
2013,07,02,13,59,21.70
2013,07,02,14,00,21.70
2013,07,02,14,01,21.60
2013,07,02,14,02,21.60
2013,07,02,14,03,21.80
2013,07,02,14,04,21.90
2013,07,02,14,05,22.00
2013,07,02,14,06,22.00
2013,07,02,14,07,22.00
2013,07,02,14,08,21.90
2013,07,02,14,09,21.80
2013,07,02,14,10,21.70
2013,07,02,14,11,21.80
2013,07,02,14,12,21.80
2013,07,02,14,13,21.80
2013,07,02,14,14,21.70
2013,07,02,14,15,21.70
2013,07,02,14,16,21.80
2013,07,02,14,17,21.80
2013,07,02,14,18,22.00
2013,07,02,14,19,22.00
2013,07,02,14,20,22.10
2013,07,02,14,21,22.10
2013,07,02,14,22,22.00
2013,07,02,14,23,22.00
2013,07,02,14,24,21.90
2013,07,02,14,25,21.80
2013,07,02,14,26,21.70
2013,07,02,14,27,21.60
2013,07,02,14,28,21.60
2013,07,02,14,29,21.40
2013,07,02,14,30,21.30
2013,07,02,14,31,21.30
2013,07,02,14,32,21.30
2013,07,02,14,33,21.20
2013,07,02,14,34,21.20
2013,07,02,14,35,21.20
2013,07,02,14,36,21.20
2013,07,02,14,37,21.30
2013,07,02,14,38,21.30
2013,07,02,14,39,21.30
2013,07,02,14,40,21.40
2013,07,02,14,41,21.40
2013,07,02,14,42,21.40
2013,07,02,14,43,21.40
2013,07,02,14,44,21.40
2013,07,02,14,45,21.40
2013,07,02,14,46,21.50
2013,07,02,14,47,21.60
2013,07,02,14,48,21.70
2013,07,02,14,49,21.70
2013,07,02,14,50,21.80
2013,07,02,14,51,21.80
2013,07,02,14,52,21.80
2013,07,02,14,53,21.80
2013,07,02,14,54,21.70
2013,07,02,14,55,21.60
2013,07,02,14,56,21.60
2013,07,02,14,57,21.50
2013,07,02,14,58,21.40
2013,07,02,14,59,21.40
2013,07,02,15,00,21.30
2013,07,02,15,01,21.30
2013,07,02,15,02,21.40
2013,07,02,15,03,21.50
2013,07,02,15,04,21.60
2013,07,02,15,05,21.70
2013,07,02,15,06,21.80
2013,07,02,15,07,21.90
2013,07,02,15,08,22.00
2013,07,02,15,09,22.00
2013,07,02,15,10,22.00
2013,07,02,15,11,22.00
2013,07,02,15,12,22.00
2013,07,02,15,13,22.00
2013,07,02,15,14,22.00
2013,07,02,15,15,22.00
2013,07,02,15,16,22.00
2013,07,02,15,17,22.00
2013,07,02,15,18,22.00
2013,07,02,15,19,22.10
2013,07,02,15,20,22.10
2013,07,02,15,21,22.20
2013,07,02,15,22,22.30
2013,07,02,15,23,22.30
2013,07,02,15,24,22.30
2013,07,02,15,25,22.30
2013,07,02,15,26,22.20
2013,07,02,15,27,22.10
2013,07,02,15,28,22.10
2013,07,02,15,29,22.20
2013,07,02,15,30,22.20
2013,07,02,15,31,22.20
2013,07,02,15,32,22.30
2013,07,02,15,33,22.40
2013,07,02,15,34,22.40
2013,07,02,15,35,22.40
2013,07,02,15,36,22.30
2013,07,02,15,37,22.30
2013,07,02,15,38,22.30
2013,07,02,15,39,22.20
2013,07,02,15,40,22.20
2013,07,02,15,41,22.20
2013,07,02,15,42,22.20
2013,07,02,15,43,22.30
2013,07,02,15,44,22.30
2013,07,02,15,45,22.30
2013,07,02,15,46,22.40
2013,07,02,15,47,22.40
2013,07,02,15,48,22.40
2013,07,02,15,49,22.40
2013,07,02,15,50,22.40
2013,07,02,15,51,22.30
2013,07,02,15,52,22.30
2013,07,02,15,53,22.20
2013,07,02,15,54,22.30
2013,07,02,15,55,22.30
2013,07,02,15,56,22.30
2013,07,02,15,57,22.30
2013,07,02,15,58,22.30
2013,07,02,15,59,22.40
2013,07,02,16,00,22.40
2013,07,02,16,01,22.40
2013,07,02,16,02,22.40
2013,07,02,16,03,22.50
2013,07,02,16,04,22.50
2013,07,02,16,05,22.50
2013,07,02,16,06,22.50
2013,07,02,16,07,22.40
2013,07,02,16,08,22.40
2013,07,02,16,09,22.40
2013,07,02,16,10,22.50
2013,07,02,16,11,22.60
2013,07,02,16,12,22.60
2013,07,02,16,13,22.60
2013,07,02,16,14,22.60
2013,07,02,16,15,22.50
2013,07,02,16,16,22.50
2013,07,02,16,17,22.60
2013,07,02,16,18,22.70
2013,07,02,16,19,22.70
2013,07,02,16,20,22.70
2013,07,02,16,21,22.70
2013,07,02,16,22,22.70
2013,07,02,16,23,22.70
2013,07,02,16,24,22.70
2013,07,02,16,25,22.70
2013,07,02,16,26,22.70
2013,07,02,16,27,22.70
2013,07,02,16,28,22.70
2013,07,02,16,29,22.60
2013,07,02,16,30,22.60
2013,07,02,16,31,22.60
2013,07,02,16,32,22.60
2013,07,02,16,33,22.50
2013,07,02,16,34,22.50
2013,07,02,16,35,22.50
2013,07,02,16,36,22.50
2013,07,02,16,37,22.50
2013,07,02,16,38,22.50
2013,07,02,16,39,22.50
2013,07,02,16,40,22.50
2013,07,02,16,41,22.40
2013,07,02,16,42,22.30
2013,07,02,16,43,22.00
2013,07,02,16,44,21.80
2013,07,02,16,45,21.60
2013,07,02,16,46,21.40
2013,07,02,16,47,21.30
2013,07,02,16,48,21.20
2013,07,02,16,49,21.20
2013,07,02,16,50,21.20
2013,07,02,16,51,21.30
2013,07,02,16,52,21.30
2013,07,02,16,53,21.30
2013,07,02,16,54,21.30
2013,07,02,16,55,21.30
2013,07,02,16,56,21.20
2013,07,02,16,57,21.10
2013,07,02,16,58,21.00
2013,07,02,16,59,20.90
2013,07,02,17,00,20.80
2013,07,02,17,01,20.70
2013,07,02,17,02,20.60
2013,07,02,17,03,20.50
2013,07,02,17,04,20.50
2013,07,02,17,05,20.40
2013,07,02,17,06,20.30
2013,07,02,17,07,20.20
2013,07,02,17,08,20.20
2013,07,02,17,09,20.20
2013,07,02,17,10,20.20
2013,07,02,17,11,20.20
2013,07,02,17,12,20.20
2013,07,02,17,13,20.30
2013,07,02,17,14,20.30
2013,07,02,17,15,20.40
2013,07,02,17,16,20.40
2013,07,02,17,17,20.40
2013,07,02,17,18,20.30
2013,07,02,17,19,20.20